Change the Weather History Date:

Sunday, April 21, 2013

  Actual Average (KARR) Record (KARR)
Temperature  
Mean Temperature 40 °F 50 °F  
Max Temperature 51 °F 62 °F 81 °F (2001)
Min Temperature 29 °F 39 °F 28 °F (2013)
Degree Days  
Heating Degree Days 25 15  
Month to date heating degree days 380  
Since 1 July heating degree days 6388  
Cooling Degree Days 0 0  
Month to date cooling degree days 0  
Year to date cooling degree days 0  
Moisture  
Dew Point 27 °F    
Average Humidity 58    
Maximum Humidity 79    
Minimum Humidity 43    
Precipitation  
Precipitation 0.00 in 0.10 in 0.33 in (2002)
Month to date precipitation 2.17  
Year to date precipitation 7.49  
Sea Level Pressure  
Sea Level Pressure 30.39 in    
Wind  
Wind Speed 13 mph (SE)    
Max Wind Speed 22 mph    
Max Gust Speed 28 mph    
Visibility 10 miles    
Events      
T = Trace of Precipitation, MM = Missing Value Source: NWS Daily Summary

Daily Weather History Graph

Daily Weather History Graph

Search for Another Location

Airport or City:

Trip Planner

Search our weather history database for the weather conditions in past years. The results will help you decide how hot, cold, wet, or windy it might be!

Date:

Astronomy

Apr. 21, 2013 Rise Set
Actual Time 6:04 AM CDT 7:42 PM CDT
Civil Twilight 5:35 AM CDT 8:12 PM CDT
Nautical Twilight 4:59 AM CDT 8:48 PM CDT
Astronomical Twilight 4:21 AM CDT 9:26 PM CDT
Moon 3:24 PM CDT (4/21) 3:31 AM CDT (4/21)
Length of Visible Light 14h 37m
Length of Day
13h 38m
Waxing Gibbous, 80% of the Moon is Illuminated
Apr 21
Waxing Gibbous
Apr 25
Full
May 2
Last Quarter
May 9
New
May 17
First Quarter

Hourly Weather History & Observations

Time (CDT) Temp. Windchill Dew Point Humidity Pressure Visibility Wind Dir Wind Speed Gust Speed Precip Events Conditions
12:15 AM 30.2 °F 22.6 °F 23.7 °F 77% 30.40 in 10.0 mi East 8.1 mph - N/A   Clear
12:35 AM 30.2 °F 22.6 °F 23.9 °F 77% 30.40 in 10.0 mi ESE 8.1 mph - N/A   Clear
12:55 AM 30.4 °F 22.9 °F 23.9 °F 77% 30.40 in 10.0 mi ESE 8.1 mph - N/A   Clear
1:15 AM 30.2 °F 22.6 °F 24.3 °F 79% 30.41 in 10.0 mi ESE 8.1 mph - N/A   Clear
1:35 AM 30.0 °F 24.1 °F 24.3 °F 79% 30.41 in 10.0 mi ESE 5.8 mph - N/A   Clear
4:15 AM 29.5 °F 21.1 °F 23.0 °F 77% 30.42 in 10.0 mi ESE 9.2 mph - N/A   Clear
4:35 AM 29.8 °F 21.5 °F 22.6 °F 75% 30.43 in 10.0 mi ESE 9.2 mph - N/A   Clear
4:55 AM 30.2 °F 21.3 °F 22.6 °F 73% 30.43 in 10.0 mi ESE 10.4 mph - N/A   Clear
5:15 AM 30.4 °F 21.5 °F 22.6 °F 73% 30.44 in 10.0 mi ESE 10.4 mph - N/A   Mostly Cloudy
5:35 AM 30.9 °F 22.2 °F 23.0 °F 72% 30.44 in 10.0 mi ESE 10.4 mph - N/A   Overcast
5:55 AM 30.9 °F 22.2 °F 22.8 °F 72% 30.45 in 10.0 mi ESE 10.4 mph - N/A   Mostly Cloudy
6:15 AM 30.9 °F 22.2 °F 23.0 °F 72% 30.45 in 10.0 mi ESE 10.4 mph - N/A   Overcast
6:35 AM 31.5 °F 21.8 °F 23.0 °F 71% 30.45 in 10.0 mi ESE 12.7 mph - N/A   Overcast
6:55 AM 32.0 °F 22.5 °F 22.6 °F 68% 30.46 in 10.0 mi ESE 12.7 mph - N/A   Overcast
7:15 AM 32.5 °F 22.3 °F 22.3 °F 66% 30.47 in 10.0 mi SE 15.0 mph 20.7 mph N/A   Scattered Clouds
7:35 AM 32.9 °F 23.2 °F 21.9 °F 64% 30.47 in 10.0 mi SE 13.8 mph 19.6 mph N/A   Clear
7:55 AM 33.1 °F 22.6 °F 22.3 °F 65% 30.48 in 10.0 mi SE 16.1 mph 19.6 mph N/A   Clear
8:15 AM 34.5 °F 25.7 °F 22.8 °F 62% 30.49 in 10.0 mi ESE 12.7 mph - N/A   Clear
8:35 AM 35.2 °F 25.8 °F 21.9 °F 58% 30.49 in 10.0 mi SE 15.0 mph - N/A   Clear
8:55 AM 36.3 °F 26.4 °F 21.0 °F 54% 30.50 in 10.0 mi SE 17.3 mph 20.7 mph N/A   Scattered Clouds
9:15 AM 38.5 °F 29.6 °F 22.5 °F 53% 30.50 in 10.0 mi SE 16.1 mph - N/A   Scattered Clouds
9:35 AM 38.3 °F 30.1 °F 22.3 °F 53% 30.49 in 10.0 mi SE 13.8 mph 21.9 mph N/A   Mostly Cloudy
9:55 AM 39.7 °F 30.9 °F 21.9 °F 49% 30.49 in 10.0 mi SE 17.3 mph - N/A   Scattered Clouds
10:15 AM 41.0 °F 33.1 °F 23.4 °F 50% 30.49 in 10.0 mi SSE 15.0 mph - N/A   Clear
10:35 AM 41.0 °F 32.5 °F 22.5 °F 48% 30.49 in 10.0 mi SSE 17.3 mph - N/A   Clear
10:55 AM 42.8 °F 34.8 °F 24.4 °F 48% 30.49 in 10.0 mi SE 17.3 mph - N/A   Clear
11:15 AM 43.9 °F 35.4 °F 25.0 °F 47% 30.47 in 10.0 mi SSE 20.7 mph 25.3 mph N/A   Clear
11:35 AM 43.7 °F 35.0 °F 22.8 °F 44% 30.46 in 10.0 mi SE 21.9 mph 27.6 mph N/A   Scattered Clouds
11:55 AM 44.8 °F 36.4 °F 24.1 °F 44% 30.44 in 10.0 mi SE 21.9 mph 26.5 mph N/A   Scattered Clouds
12:15 PM 45.5 °F 38.3 °F 24.6 °F 44% 30.44 in 10.0 mi SE 17.3 mph 26.5 mph N/A   Clear
12:35 PM 46.2 °F 38.7 °F 25.3 °F 44% 30.43 in 10.0 mi SE 19.6 mph 26.5 mph N/A   Clear
12:55 PM 46.8 °F - 26.2 °F 45% 30.41 in 10.0 mi SE 19.6 mph 26.5 mph N/A   Clear
1:15 PM 47.7 °F - 26.1 °F 43% 30.41 in 10.0 mi SSE 18.4 mph 25.3 mph N/A   Clear
1:35 PM 48.2 °F - 26.8 °F 43% 30.40 in 10.0 mi SE 19.6 mph 24.2 mph N/A   Clear
1:55 PM 48.6 °F - 26.8 °F 43% 30.40 in 10.0 mi SE 17.3 mph 25.3 mph N/A   Clear
2:15 PM 49.6 °F - 28.4 °F 44% 30.38 in 10.0 mi SSE 18.4 mph 23.0 mph N/A   Clear
2:35 PM 49.1 °F - 28.8 °F 45% 30.37 in 10.0 mi SSE 18.4 mph 25.3 mph N/A   Scattered Clouds
2:55 PM 48.7 °F - 27.9 °F 44% 30.36 in 10.0 mi SE 18.4 mph - N/A   Scattered Clouds
3:15 PM 50.4 °F - 29.1 °F 44% 30.35 in 10.0 mi SE 19.6 mph 26.5 mph N/A   Scattered Clouds
3:35 PM 50.4 °F - 29.5 °F 45% 30.35 in 10.0 mi SE 19.6 mph 25.3 mph N/A   Scattered Clouds
3:55 PM 51.3 °F - 30.0 °F 44% 30.34 in 10.0 mi SE 21.9 mph 25.3 mph N/A   Scattered Clouds
4:15 PM 50.9 °F - 30.6 °F 46% 30.34 in 10.0 mi SE 18.4 mph 25.3 mph N/A   Mostly Cloudy
4:35 PM 50.9 °F - 30.7 °F 46% 30.34 in 10.0 mi SE 19.6 mph 25.3 mph N/A   Scattered Clouds
4:55 PM 50.7 °F - 30.9 °F 47% 30.33 in 10.0 mi SE 19.6 mph 23.0 mph N/A   Clear
5:35 PM 50.9 °F - 31.8 °F 48% 30.33 in 10.0 mi SSE 18.4 mph 25.3 mph N/A   Clear
5:55 PM 50.2 °F - 31.3 °F 48% 30.32 in 10.0 mi SSE 16.1 mph - N/A   Clear
6:15 PM 50.2 °F - 31.6 °F 49% 30.31 in 10.0 mi SSE 20.7 mph - N/A   Clear
6:35 PM 49.3 °F - 31.6 °F 51% 30.31 in 10.0 mi SSE 17.3 mph 21.9 mph N/A   Clear
6:55 PM 48.9 °F - 31.8 °F 52% 30.31 in 10.0 mi SSE 16.1 mph - N/A   Clear
7:15 PM 47.7 °F - 32.7 °F 56% 30.31 in 10.0 mi SSE 13.8 mph - N/A   Clear
7:35 PM 46.4 °F 40.7 °F 32.7 °F 59% 30.31 in 10.0 mi SE 12.7 mph - N/A   Clear
7:55 PM 45.5 °F 39.6 °F 33.3 °F 62% 30.31 in 10.0 mi SE 12.7 mph - N/A   Clear
8:15 PM 44.8 °F 38.7 °F 32.9 °F 63% 30.31 in 10.0 mi SE 12.7 mph - N/A   Clear
8:35 PM 44.6 °F 38.1 °F 32.7 °F 63% 30.31 in 10.0 mi SE 13.8 mph - N/A   Clear
8:55 PM 44.4 °F 37.5 °F 32.2 °F 62% 30.32 in 10.0 mi SE 15.0 mph - N/A   Clear
9:15 PM 44.1 °F 37.1 °F 32.2 °F 63% 30.32 in 10.0 mi SE 15.0 mph - N/A   Scattered Clouds
9:35 PM 43.2 °F 36.6 °F 32.0 °F 65% 30.32 in 10.0 mi SE 12.7 mph - N/A   Scattered Clouds
9:55 PM 42.8 °F 35.8 °F 32.2 °F 66% 30.33 in 10.0 mi SE 13.8 mph - N/A   Clear
10:15 PM 42.8 °F 35.8 °F 32.4 °F 67% 30.32 in 10.0 mi SE 13.8 mph - N/A   Mostly Cloudy
10:35 PM 42.8 °F 36.6 °F 32.2 °F 66% 30.32 in 10.0 mi SE 11.5 mph - N/A   Overcast
10:55 PM 42.8 °F 35.4 °F 32.2 °F 66% 30.31 in 10.0 mi SE 15.0 mph - N/A   Overcast
11:15 PM 41.9 °F 35.0 °F 32.0 °F 68% 30.31 in 10.0 mi SE 12.7 mph - N/A   Overcast
11:35 PM 41.7 °F 34.4 °F 32.0 °F 68% 30.31 in 10.0 mi SE 13.8 mph 17.3 mph N/A   Overcast
11:55 PM 41.9 °F 34.3 °F 32.0 °F 68% 30.30 in 10.0 mi SE 15.0 mph - N/A   Overcast